sat.trackr.live / text

‹ back to catalog

STARLINK-32047

NORAD 61516 · 2024-183H

PAYLOAD ACTIVE UNKNOWN

§ Identity

Operator
Country
US
Launch date
2024-10-15
Launch site
AFETR
Launch vehicle
Mass (kg)
RCS (m²)

Purposes: comms

External: N2YO · Heavens-Above · Gunter

§ Orbital elements

Epoch: 2026-05-25T03:37:35.301792Z

Period
94.01 min
Inclination
53.1603°
Eccentricity
0.0001373
Mean motion
15.31709253 rev/d
Perigee alt
469.8 km
Apogee alt
471.7 km
Semi-major
6,848.8 km
B*
2.2079e-5
RAAN
146.9615°
Arg perigee
85.2180°
Mean anomaly
274.8979°
Rev number
9,136

§ Raw data

STARLINK-320471 61516U 24183H   26145.15110303  .00000320  00000+0  22079-4 0  99972 61516  53.1603 146.9615 0001373  85.2180 274.8979 15.31709253 91360

JSON: /api/v1/satellites/61516 · /tle

For live sub-satellite position, see the globe view (requires WebGL).

§ Visibility from observer

Set your observer location to see the next 7 days of passes ≥ 10°. The values pass through the URL so the page stays shareable.

No JS? Fill the form by hand. The geolocation button needs JavaScript.